Preview of NWS' New Version of Forecast
This preview is not operational and should not be used for support decisions.

Regional Weather Roundup (RWR)

Issued by National Weather Service (NWS)

                            
000
ASUS43 KDMX 230106
RWRIA 

WEATHER ROUNDUP FOR IOWA
NATIONAL WEATHER SERVICE DES MOINES IA
800 PM CDT SUN SEP 22 2019

NOTE: "FAIR" INDICATES FEW OR NO CLOUDS BELOW 12,000 FEET WITH NO
SIGNIFICANT WEATHER AND/OR OBSTRUCTIONS TO VISIBILITY.

* - THESE STATIONS ARE NOT NWS STATIONS...THUS NOT UNDER NWS
QUALITY CONTROL.  THEY ALSO DO NOT REPORT WEATHER SUCH 
AS PRECIPITATION OR FOG.  

IAZ001>003-012>014-020>022-031>034-043>046-230200-
   NORTHWEST IOWA
  
CITY           SKY/WX    TMP DP  RH WIND       PRES   REMARKS
CARROLL *      CLEAR     61  57  88 CALM      29.95R                  
CHEROKEE *     CLEAR     60  57  91 CALM      29.95R                  
DENISON *      PTCLDY    61  61 100 CALM      29.97R                  
LE MARS *      CLEAR     61  57  88 CALM      29.95R                  
SIOUX CITY     CLEAR     63  54  72 NW6       29.96R                  
SPENCER        CLEAR     59  53  80 E3        29.95R                  
STORM LAKE *   PTCLDY    61  57  88 N3        29.93R                  
$$
 
IAZ055>058-069>071-079>083-090>094-230200-
   SOUTHWEST IOWA
  
CITY           SKY/WX    TMP DP  RH WIND       PRES   REMARKS
ATLANTIC *     CLEAR     61  61 100 CALM      29.94R                  
AUDUBON *        N/A     61  57  88 CALM      29.96R                  
CLARINDA *     CLEAR     61  61 100 CALM      29.97R                  
COUNCIL BLFS * CLEAR     66  59  77 W3        29.94R                  
CRESTON *      CLEAR     61  59  94 NW3       29.96R                  
HARLAN  *      CLEAR     61  59  94 CALM      29.95R                  
LAMONI         CLEAR     62  59  90 NW6       29.95R                  
RED OAK *      CLEAR     61  59  94 CALM      29.96R                  
SHENANDOAH *   CLEAR     61  59  94 CALM      29.95R                  
$$
 
IAZ047>049-059>061-072>074-084-230200-
   CENTRAL IOWA
  
CITY           SKY/WX    TMP DP  RH WIND       PRES   REMARKS
AMES           CLEAR     57  56  96 NW3       29.94R                  
ANKENY *       CLEAR     61  57  88 N6        29.95R                  
BOONE *        CLEAR     57  57 100 CALM      29.94R                  
CHARITON *     CLEAR     61  61 100 NW5       29.94R                  
DES MOINES     PTCLDY    61  58  90 N6        29.93R                  
GRINNELL*      CLOUDY    60  58  94 N8        29.93R                  
KNOXVILLE *    PTCLDY    63  61  94 NW9       29.93R                  
MARSHALLTOWN   PTCLDY    57  57 100 NW7       29.92R                  
NEWTON *       PTCLDY    61  59  94 N8        29.93R                  
PELLA *        MOCLDY    61  60  96 N3        29.94R                  
PERRY *        MOCLDY    61  57  88 NE3       29.95R                  
$$
 
IAZ004>006-015-016-023>025-035-036-230200-
   NORTH CENTRAL IOWA
  
CITY           SKY/WX    TMP DP  RH WIND       PRES   REMARKS
ALGONA *       CLOUDY    59  55  88 CALM      29.94R                  
CLARION *      CLEAR     55  55 100 CALM      29.95R                  
ESTHERVILLE    CLEAR     53  51  93 CALM      29.95R                  
FORT DODGE *   CLEAR     57  56  96 CALM      29.96R                  
MASON CITY     CLEAR     54  53  97 W7        29.95R                  
FOREST CITY *  FAIR      55  55 100 CALM      29.95R                  
IOWA FALLS *     N/A     57  53  85 NW5       29.95R                  
$$

IAZ007>011-017>019-026>030-037>042-050>054-066-230200-
   NORTHEAST IOWA
  
CITY           SKY/WX    TMP DP  RH WIND       PRES   REMARKS
CEDAR RAPIDS   CLOUDY    62  60  93 NW14G24   29.89R                  
CHARLES CITY * CLOUDY    55  55 100 NW5       29.92R                  
CLINTON *      CLOUDY    67  67 100 W6        29.87R                  
DECORAH *      LGT RAIN  59  59 100 NW6       29.90R                  
DUBUQUE        RAIN      66  65  96 W10       29.87R FOG              
MONTICELLO *   LGT RAIN  64  64 100 NW14G21   29.88R                  
OELWEIN *      CLOUDY    59  59 100 N12       29.92R FOG              
WATERLOO       CLOUDY    60  57  89 N7        29.90R                  
$$
 
IAZ064-065-067-068-078-230200-
   EAST CENTRAL IOWA
  
CITY           SKY/WX    TMP DP  RH WIND       PRES   REMARKS
DAVENPORT      CLOUDY    67  65  93 SW6       29.88R                  
IOWA CITY      CLOUDY    69  65  86 W9        29.89R                  
MUSCATINE *    CLOUDY    70  66  88 CALM      29.87S                  
QUAD CITIES    CLOUDY    69  66  90 W6        29.86R                  
$$
 
IAZ062-063-075>077-085>089-095>099-230200-
   SOUTHEAST IOWA
  
CITY           SKY/WX    TMP DP  RH WIND       PRES   REMARKS
BURLINGTON     CLOUDY    70  67  90 NW6       29.87R                  
FAIRFIELD *    CLOUDY    68  68 100 W10       29.90R                  
FORT MADISON * CLOUDY    70  70 100 CALM      29.89R                  
KEOKUK *       CLOUDY    70  70 100 NW3       29.88R                  
OSKALOOSA *    CLOUDY    63  60  91 N12       29.92R                  
CENTERVILLE *  MOCLDY    64  64 100 NW13G24   29.95R                  
OTTUMWA        CLOUDY    64  62  93 N16       29.91R                  
WASHINGTON *   CLOUDY    68  68 100 W3        29.87R                  
$$

ABBREVIATIONS USED IN REMARKS
   TC - TEMPERATURES IN CELSIUS
  WCI - WIND CHILL INDEX
   HX - HEAT INDEX
  VSB - VISIBILITY  
$$